17.05.2024;11:00;83
17.05.2024;10:00;85
17.05.2024;09:00;86
17.05.2024;08:00;87
17.05.2024;07:00;88
17.05.2024;06:00;92
17.05.2024;05:00;92
17.05.2024;04:00;92
17.05.2024;03:00;90
17.05.2024;02:00;84
17.05.2024;01:00;80
17.05.2024;00:00;75
16.05.2024;23:00;80
16.05.2024;22:00;61
16.05.2024;21:00;67
16.05.2024;20:00;68
16.05.2024;19:00;84
16.05.2024;18:00;93
16.05.2024;17:00;94
16.05.2024;16:00;93
16.05.2024;15:00;97
16.05.2024;14:00;98
16.05.2024;13:00;95
16.05.2024;12:00;89
16.05.2024;11:00;81
16.05.2024;10:00;73
16.05.2024;09:00;55
16.05.2024;08:00;36
16.05.2024;07:00;37
16.05.2024;06:00;44
16.05.2024;05:00;52
16.05.2024;04:00;58
16.05.2024;03:00;60
16.05.2024;02:00;58
16.05.2024;01:00;62
16.05.2024;00:00;55
15.05.2024;23:00;61
15.05.2024;22:00;54
15.05.2024;21:00;65
15.05.2024;20:00;78
15.05.2024;19:00;86
15.05.2024;18:00;89
15.05.2024;17:00;92
15.05.2024;16:00;89
15.05.2024;15:00;84
15.05.2024;14:00;80
15.05.2024;13:00;67
15.05.2024;12:00;61
